الصفحة الرئيسية
METAR-TAF:

METAR-TAF

مطار :

Paraburdoo, أستراليا

دائرة عرض: 23-10-17S, خط طول: 117-44-44E, ارتفاع: 429 متر

مراقبة الطقس الحالي

تاريخ ووقت الإصدار 27 دقيقة قبل الساعة 12:00UTC
ريح 4 عقدة من الشرق/الجنوب الشرقي
درجة الحرارة 10°درجة مئوية
الرطوبة 53%
ضغط 1022 hPa
الرؤية 10 كم أو أكثر

METAR: YPBO 231200Z AUTO 11004KT 9999 // NCD 10/01 Q1022

زمن: 20:27 (12:27 UTC)


TAF: مفقودة

أرصاد الطقس والتوقعات من أكثر من 4000 مطار (تقارير الطقس للمطار METAR والتنبؤ بالطقس بالمطارTAF).

المحطات المتاحة هي النقط الصفراء والحمراء على الخريطة.

حرك المؤشر فوق النقطة لمعرفة اسم المحطة.

ثم انقر لمعرفة أرصاد وتوقعات الطقس.

لتغيير الخارطة: اضغط على الأزرار الخضراء مع رمز الصليب الأسود للتكبير. على الزر الأخضر مع شرطة للتصغير، أو على الأسهم الخضراء للخرائط المجاورة.


METAR-TAF: